Time,TemperatureF,DewpointF,PressureIn,WindDirection,WindDirectionDegrees,WindSpeedMPH,WindSpeedGustMPH,Humidity,HourlyPrecipIn,Conditions,Clouds,dailyrainin,SoftwareType,DateUTC
2013-11-13 00:23:00,41.0,-99.9,30.58,North,-999,-999.0,-999.0,-999,-99.99,,,-99.99,,2013-11-13 06:23:00,
2013-11-13 00:52:00,41.0,-99.9,30.58,North,-999,-999.0,-999.0,-999,-99.99,,,-99.99,,2013-11-13 06:52:00,
2013-11-13 01:22:00,40.0,-99.9,30.58,North,-999,-999.0,-999.0,-999,-99.99,,,-99.99,,2013-11-13 07:22:00,
2013-11-13 01:52:00,39.0,-99.9,30.58,North,-999,-999.0,-999.0,-999,-99.99,,,-99.99,,2013-11-13 07:52:00,
2013-11-13 02:52:00,38.0,-99.9,30.57,North,-999,-999.0,-999.0,-999,-99.99,,,-99.99,,2013-11-13 08:52:00,
2013-11-13 03:22:00,37.0,-99.9,30.57,North,-999,-999.0,-999.0,-999,-99.99,,,-99.99,,2013-11-13 09:22:00,
2013-11-13 03:53:00,36.0,-99.9,30.58,North,-999,-999.0,-999.0,-999,-99.99,,,-99.99,,2013-11-13 09:53:00,
2013-11-13 04:23:00,36.0,-99.9,30.58,North,-999,-999.0,-999.0,-999,-99.99,,,-99.99,,2013-11-13 10:23:00,
2013-11-13 04:52:00,36.0,-99.9,30.59,North,-999,-999.0,-999.0,-999,-99.99,,,-99.99,,2013-11-13 10:52:00,
2013-11-13 05:22:00,36.0,-99.9,30.59,North,-999,-999.0,-999.0,-999,-99.99,,,-99.99,,2013-11-13 11:22:00,
2013-11-13 05:52:00,35.0,-99.9,30.59,North,-999,-999.0,-999.0,-999,-99.99,,,-99.99,,2013-11-13 11:52:00,
2013-11-13 06:22:00,35.0,-99.9,30.60,North,-999,-999.0,-999.0,-999,-99.99,,,-99.99,,2013-11-13 12:22:00,
2013-11-13 06:52:00,35.0,-99.9,30.60,North,-999,-999.0,-999.0,-999,-99.99,,,-99.99,,2013-11-13 12:52:00,
2013-11-13 07:22:00,34.0,-99.9,30.60,North,-999,-999.0,-999.0,-999,-99.99,,,-99.99,,2013-11-13 13:22:00,
2013-11-13 07:52:00,34.0,-99.9,30.61,North,-999,-999.0,-999.0,-999,-99.99,,,-99.99,,2013-11-13 13:52:00,
2013-11-13 08:53:00,37.0,-99.9,30.62,North,-999,-999.0,-999.0,-999,-99.99,,,-99.99,,2013-11-13 14:53:00,
2013-11-13 09:22:00,39.0,-99.9,30.61,North,-999,-999.0,-999.0,-999,-99.99,,,-99.99,,2013-11-13 15:22:00,
2013-11-13 09:53:00,40.0,-99.9,30.61,North,-999,-999.0,-999.0,-999,-99.99,,,-99.99,,2013-11-13 15:53:00,
2013-11-13 10:53:00,43.0,-99.9,30.60,North,-999,-999.0,-999.0,-999,-99.99,,,-99.99,,2013-11-13 16:53:00,
2013-11-13 11:23:00,45.0,-99.9,30.59,North,-999,-999.0,-999.0,-999,-99.99,,,-99.99,,2013-11-13 17:23:00,
2013-11-13 11:52:00,47.0,-99.9,30.57,North,-999,-999.0,-999.0,-999,-99.99,,,-99.99,,2013-11-13 17:52:00,
2013-11-13 12:23:00,49.0,-99.9,30.54,North,-999,-999.0,-999.0,-999,-99.99,,,-99.99,,2013-11-13 18:23:00,
2013-11-13 12:52:00,51.0,-99.9,30.51,North,-999,-999.0,-999.0,-999,-99.99,,,-99.99,,2013-11-13 18:52:00,
2013-11-13 13:11:00,51.0,-99.9,30.50,North,-999,-999.0,-999.0,-999,-99.99,,,-99.99,,2013-11-13 19:11:00,
2013-11-13 13:52:00,53.0,-99.9,30.48,North,-999,-999.0,-999.0,-999,-99.99,,,-99.99,,2013-11-13 19:52:00,
2013-11-13 14:52:00,54.0,-99.9,30.47,North,-999,-999.0,-999.0,-999,-99.99,,,-99.99,,2013-11-13 20:52:00,
2013-11-13 15:22:00,56.0,-99.9,30.46,North,-999,-999.0,-999.0,-999,-99.99,,,-99.99,,2013-11-13 21:22:00,
2013-11-13 15:53:00,55.0,-99.9,30.46,North,-999,-999.0,-999.0,-999,-99.99,,,-99.99,,2013-11-13 21:53:00,
2013-11-13 16:23:00,54.0,-99.9,30.46,North,-999,-999.0,-999.0,-999,-99.99,,,-99.99,,2013-11-13 22:23:00,
2013-11-13 17:22:00,53.0,-99.9,30.46,North,-999,-999.0,-999.0,-999,-99.99,,,-99.99,,2013-11-13 23:22:00,
2013-11-13 17:53:00,51.0,-99.9,30.47,North,-999,-999.0,-999.0,-999,-99.99,,,-99.99,,2013-11-13 23:53:00,
2013-11-13 18:22:00,50.0,-99.9,-100.00,North,-999,-999.0,-999.0,-999,-99.99,,,-99.99,,2013-11-14 00:22:00,
2013-11-13 19:22:00,49.0,-99.9,30.47,North,-999,-999.0,-999.0,-999,-99.99,,,-99.99,,2013-11-14 01:22:00,
2013-11-13 19:52:00,48.0,-99.9,30.48,North,-999,-999.0,-999.0,-999,-99.99,,,-99.99,,2013-11-14 01:52:00,
2013-11-13 20:22:00,47.0,-99.9,30.47,North,-999,-999.0,-999.0,-999,-99.99,,,-99.99,,2013-11-14 02:22:00,
2013-11-13 21:22:00,45.0,-99.9,30.47,North,-999,-999.0,-999.0,-999,-99.99,,,-99.99,,2013-11-14 03:22:00,
2013-11-13 21:54:00,44.0,-99.9,30.47,North,-999,-999.0,-999.0,-999,-99.99,,,-99.99,,2013-11-14 03:54:00,
2013-11-13 22:24:00,43.0,-99.9,30.46,North,-999,-999.0,-999.0,-999,-99.99,,,-99.99,,2013-11-14 04:24:00,
2013-11-13 23:23:00,42.0,-99.9,30.46,North,-999,-999.0,-999.0,-999,-99.99,,,-99.99,,2013-11-14 05:23:00,
2013-11-13 23:53:00,41.0,-99.9,30.45,North,-999,-999.0,-999.0,-999,-99.99,,,-99.99,,2013-11-14 05:53:00,